Location: Pasadena, ca
(34.1243°N, 118.1037°W)
Time: 11:30:21
(UTC-07:00)

Tiangong 2 - Pass Details

Date: 13 October 2017
Orbit: 388 x 392 km, 42.8° (Epoch: 19 October)

Event Time Altitude Azimuth Distance (km) Brightness Sun altitude
Exits shadow 05:58:12 12° 322° (NW) 1,293 3.4 -12.8°
Maximum altitude 05:59:54 17° 358° (N) 1,079 3.3 -12.4°
Drops below altitude 10° 06:02:06 10° 42° (NE) 1,422 4.5 -12.0°
Sets 06:04:41 0° 63° (ENE) 2,278 6.2 -11.5°
